CAPE
2269 2114 2288 2592 2896 2884 2801 2720 2739 2650 2526 2090 2369 2238 2358 2526 2295 2358 2454 2480 2446 2514 2527 2459 2914 2991 2736 2875 2906 2800 2699 2777 2723 2598 3336 3471 3289 3418 3516 3414 3396 3404 3289 3161 3154 3224 3186 3217 3042 2944 3070 2894 2649 2525 2505 2444 2160 1824 1627 2443 2589 4103 2894 2776 2451 1949 1910 2537 3030 2833 2327 2137 1406 1056 967 1035 1212 1278 1372 1339 1301 1069 727 279 296
2206 2205 2349 2425 2735 2821 2742 2569 2546 2450 2414 2161 1929 2110 2237 2282 2362 2432 2343 2285 2143 2072 2427 2565 2819 2729 2924 2863 2962 2902 2757 2729 2848 2618 3020 3346 3272 3088 3153 3327 3430 3205 3181 3243 3382 3499 3558 3380 3144 2832 2793 2612 2444 2426 2414 2508 2474 2029 1520 2069 1783 1680 2970 2020 1769 1774 1973 2251 1913 1605 1419 1454 1046 901 1019 1205 1334 1404 1334 1134 882 732 724 637 925
2050 2139 2313 2456 2461 2644 2667 2595 2403 2340 2209 2174 2098 2013 2012 2105 2188 2101 1954 2108 2100 1812 2288 2566 2703 2704 2724 2817 2849 2866 2718 2577 2625 2728 2739 3086 3197 3124 2997 3154 3329 3332 3474 3562 3468 3348 3205 3010 2852 2684 2779 2777 2624 2456 2429 2515 2152 1856 1618 1578 1498 1432 1758 2238 2002 2329 2214 1755 1352 1176 643 909 1073 1160 1252 1362 1392 1264 977 841 1091 1134 1440 1731 2052
1924 1993 2118 2421 2419 2354 2526 2621 2375 2383 2218 2166 2189 2031 1884 2098 2108 2067 1933 1921 1971 1870 1908 2299 2574 2673 2646 2646 2669 2699 2708 2669 2512 2591 2760 2735 2798 2920 3019 2882 3202 3369 3384 3403 3296 3124 2863 2414 2250 2391 2446 2415 2352 2307 2098 1867 1709 1632 1542 1589 1710 1546 1729 2374 2475 2121 1954 1234 528 655 1088 1262 1373 1333 1314 1275 994 1006 1011 1506 1687 1870 2168 2360 2419
1948 1861 1896 2104 2317 2157 2157 2431 2414 2358 2237 1982 1785 1601 1608 1646 1704 1948 2004 1867 1865 1755 1625 1939 2351 2595 2577 2496 2491 2592 2632 2585 2510 2576 2692 2834 2805 2810 2825 2784 3115 3389 3506 3411 3833 3110 2822 2682 2568 2438 2402 2422 2122 1850 1952 1773 1594 1358 1070 908 1742 1734 1930 1896 1858 2267 1753 624 1132 1284 1303 1369 1376 1360 1226 1170 1221 1025 1361 2164 2096 2078 2199 2269 2321
1966 1944 1893 1937 1980 2059 1954 2017 2177 2120 2052 1950 1728 1531 1669 1630 1639 1788 1800 1752 1785 1926 1800 1802 1887 2269 2482 2451 2318 2245 2200 2286 2393 2465 2706 2903 2933 2958 2933 2908 2841 2911 2939 2859 2827 2784 2700 2535 2231 2096 1958 1514 1444 1270 1136 1199 1165 1126 1018 681 543 580 669 742 450 525 1305 1520 1452 1418 1253 1328 1384 1390 1417 1457 1105 1075 1836 2304 2043 1926 1993 2130 2246
1982 1945 1903 1838 1674 1632 1781 1820 1916 1943 1909 1810 1668 1609 1602 1521 1524 1530 1660 1507 1597 1662 1892 1995 1917 1876 2056 2151 2215 2278 2331 2502 2628 2577 2602 2659 2718 2759 2841 2904 2957 2964 2928 2848 2682 2485 2289 2060 1817 1651 1377 1141 1071 1027 993 871 913 1008 861 650 589 1008 883 873 1569 1549 1495 1510 1495 1200 1292 1522 1439 1535 1664 1413 1365 1272 2173 2340 1995 1890 1988 2152 2249
1958 1784 1742 1664 1499 1498 1605 1621 1648 1704 1760 1726 1612 1621 1625 1560 1630 1578 1488 1474 1382 1347 1597 1578 1645 1944 1953 1964 1979 2196 2212 2292 2287 2368 2435 2455 2404 2430 2477 2596 2700 2481 2327 2554 2629 2563 2379 2154 1972 1826 1704 1575 1378 1226 1120 1066 935 743 717 650 1462 1243 1235 1519 1663 1766 1478 1353 1346 1344 1505 1564 1720 1652 1511 1544 1266 1547 2363 2388 2116 1935 1959 2038 2106
1866 1647 1580 1550 1369 1322 1408 1418 1504 1527 1508 1575 1632 1681 1612 1404 1500 1640 1588 1561 1470 1407 1358 1595 1911 2064 1937 2012 2171 2432 2542 2398 2352 2381 2589 2610 2562 2648 2609 2579 2527 2213 1888 1685 1832 1836 1578 1445 1374 1195 961 2277 2948 2934 1849 1403 979 932 793 1250 1276 969 945 1606 1218 938 1070 1329 1276 1259 1412 1435 1336 1270 1312 1174 1115 1836 2397 2338 1984 1843 1862 1801 1780
1645 1471 1353 1364 1301 1222 1176 1039 1161 1265 1249 1190 1198 1240 1405 1355 1367 1433 1565 1565 1531 1456 1332 1206 1595 2052 2217 2132 1989 2031 2210 2782 3242 3599 3479 3060 2678 2614 2559 2490 2305 1887 1877 1972 2021 1834 1411 1167 974 2372 2977 3843 5173 4435 4778 4212 3012 1456 955 589 733 857 771 545 590 973 1397 1194 1050 1525 1496 1570 1601 1648 1734 1697 1522 2323 2094 1984 1727 1695 1705 1752 1744
1342 1222 1106 1098 1150 1186 1130 1099 1092 1097 1250 915 996 867 668 767 1235 1371 1331 1371 1442 1443 1318 1209 1318 1565 2002 2242 2022 1736 1825 2230 2596 2656 2734 2855 3033 2829 2589 2506 2386 2109 1618 1691 1600 1183 1079 838 886 2316 2779 2697 2061 3208 4095 3681 3613 3205 2536 2046 1412 574 455 651 668 785 1371 1772 2260 2219 2245 1966 1765 1622 1716 1700 2116 2136 1790 1692 1615 1669 1756 1726 1680
1357 1135 1017 1008 1063 1086 1078 1163 1124 1214 1919 2082 2085 2251 2370 2280 1833 1400 1309 1341 1409 1396 1316 1264 1258 1284 1371 1726 2093 2211 2133 2007 2137 2207 2156 2187 2398 2523 2546 2469 2365 2219 1638 1498 942 845 930 1289 1818 2909 3119 3288 1841 1016 1556 3149 2914 3480 3458 2952 2272 2599 1734 699 738 1277 1986 2386 2382 2421 1855 1601 1596 1781 1935 1965 1974 1789 1676 1683 1741 1788 1750 1665 1587
1743 1640 1674 1976 1797 1261 1110 1108 1086 1724 2199 2530 2779 2679 2284 2092 1913 1722 1580 1688 1728 1266 1253 1162 1150 1246 1220 1072 1267 1705 1971 2008 1861 1704 1495 1193 1320 1670 1847 1948 1873 1565 1363 1090 915 1101 1541 1588 1684 977 850 2127 1107 1109 1413 1752 2499 2803 2970 2911 2745 2486 1980 1292 1062 1659 2494 2538 2434 1719 1638 1734 1812 1920 1915 1894 1844 1802 1821 1796 1670 1530 1507 1534 1510
1573 2120 2017 2104 2176 2130 1965 1477 1348 1829 2086 2263 2470 2524 2294 1983 1893 1786 1710 1838 1917 1604 1216 892 738 735 666 682 745 915 1146 1315 1411 1442 1394 1190 892 706 927 1101 1308 1188 1092 1048 1647 1741 1561 1487 1155 927 910 899 936 1071 1278 1862 2168 2216 2275 2347 2247 2408 2406 2679 2946 2806 2464 1894 1846 1814 1967 1874 1845 1796 1875 1864 1854 1751 1666 1548 1358 1264 1143 1301 1352
1605 2041 2090 2233 2276 2245 1986 1709 1317 1298 1808 2067 2062 2202 2208 2147 1932 1844 1899 1916 1868 1586 1128 802 650 562 498 523 564 600 616 603 548 539 537 517 508 822 1381 1498 1293 1311 1434 1994 2097 2196 1843 1446 1364 1263 1163 1097 1058 1016 1068 1480 1799 1766 1830 2014 2183 2140 2025 2039 2086 2065 1939 1910 1850 1781 1728 1710 1638 1558 1520 1758 1936 1767 1265 1086 1033 1046 1017 1023 992
1316 1647 2178 2249 2321 2377 2308 2029 1466 1172 1345 1745 2009 2143 2122 2066 2014 2022 1957 1916 1983 1877 1540 1179 861 663 534 461 403 369 293 341 413 436 464 515 1053 1634 1702 1614 1656 1952 2214 2069 2073 2189 1962 1602 1327 1200 1101 1021 959 954 1020 1156 1445 1307 1399 1422 1659 1787 1943 1943 1872 1865 1804 1751 1604 1389 1334 1285 1224 1282 1555 1894 1848 1388 1274 1180 1035 990 866 776 772
1881 1749 1496 2046 2289 2293 2245 2006 1544 1431 1276 1412 1779 1933 1984 2148 2128 2154 2276 2199 1992 1886 1880 1835 1573 1173 881 744 642 592 505 459 419 391 427 576 1110 1467 1828 1871 1714 1993 2244 2033 1825 1676 1566 1420 1297 1178 1086 1034 991 953 920 925 993 1046 1126 1074 1127 1242 1903 1733 1691 1589 1397 1236 1097 958 900 854 1150 1441 1984 1740 1338 1499 1055 761 705 756 814 724 733
1634 1651 1648 1680 1867 2222 2277 1965 1788 1732 1837 1620 1556 1663 1826 1840 1875 1773 1921 2258 2290 2078 2005 1864 1806 1769 1653 1468 1235 1124 948 780 707 625 562 497 697 1096 1550 1903 1762 1866 1994 1896 1764 1618 1583 1333 1285 1223 1189 1171 1136 1093 1029 948 866 832 794 872 874 842 1279 1181 1163 1080 807 644 574 565 728 979 1298 1843 1683 1373 1307 1068 852 508 436 619 628 719 767
1513 1450 1446 1480 1549 1600 1716 1861 1909 1702 1718 1745 1635 1401 1538 1818 1651 1570 1644 1804 1944 1877 1786 1793 1758 1658 1567 1555 1554 1545 1552 1458 1292 1152 1005 863 746 766 1067 1398 1562 1705 1745 1678 1685 1607 1461 1368 1295 1240 1199 1130 1062 973 868 751 655 602 599 568 548 777 679 598 424 337 354 432 476 538 489 812 1127 883 510 759 670 629 598 385 364 340 394 496 566
1568 1359 1175 1210 1281 1265 1329 1588 1750 1760 1599 1509 1576 1319 1233 1482 1448 1456 1443 1402 1460 1423 1366 1330 1329 1342 1287 1283 1236 1225 1277 1354 1416 1430 1444 1349 1206 1024 845 881 1208 1648 1606 1507 1408 1274 1298 1267 1170 1099 1045 995 925 814 702 582 479 381 309 279 273 271 210 175 173 351 358 386 264 234 340 535 417 358 254 225 200 181 27 8 8 2 26 126 339
1141 1294 1324 1420 1409 1574 1610 1559 1450 1393 1267 1176 1126 1210 1230 1259 1316 1189 1163 991 1099 1130 1073 961 849 882 948 1030 1103 1034 884 968 918 1053 1092 1101 1079 1003 964 892 848 1206 1420 1118 1148 1079 1026 979 958 910 902 896 817 705 604 484 352 245 171 116 69 0 71 137 313 321 224 141 106 132 128 104 61 112 106 24 0 0 0 0 0 0 0 0 0
694 732 767 954 1142 1139 1188 1141 1111 938 799 727 746 821 888 1031 1080 958 931 965 897 924 885 587 540 453 391 581 527 408 441 436 500 715 735 715 696 649 603 656 695 768 750 686 800 715 644 745 808 769 751 705 634 535 389 227 164 130 22 0 0 0 54 103 172 153 50 0 0 0 0 0 0 0 0 0 0 0 0 0 0 0 0 0 0
568 436 419 558 633 578 551 480 433 428 426 385 390 304 349 523 624 625 688 721 670 700 586 383 224 291 225 274 244 316 352 336 372 418 422 414 411 421 442 357 364 342 420 529 459 451 460 375 397 406 528 499 461 429 337 220 148 109 0 0 0 0 0 30 116 25 0 0 0 0 0 0 0 0 0 0 0 0 0 0 0 0 0 0 0
347 309 294 222 190 223 61 181 279 251 299 270 236 187 261 279 271 313 326 358 319 334 299 261 239 200 191 166 190 224 229 284 262 214 168 181 205 267 284 292 265 264 259 342 200 291 255 154 162 177 283 308 254 210 150 69 14 0 0 0 0 0 0 0 0 0 0 0 0 0 0 0 0 0 0 0 0 0 0 0 0 0 0 0 0
148 188 76 193 100 176 176 36 175 224 254 259 244 199 143 180 193 182 260 280 295 249 196 149 235 182 157 165 216 238 265 176 91 186 222 166 137 156 170 186 241 278 269 226 224 223 43 88 97 153 177 149 62 26 0 0 0 0 0 0 0 0 0 0 0 0 0 0 0 0 0 0 0 0 0 0 0 0 0 0 0 0 0 0 0
41 66 114 141 157 171 151 105 115 132 129 136 121 100 83 44 16 116 169 75 142 128 73 56 33 43 97 176 204 186 175 99 146 158 112 75 18 12 47 94 138 173 191 155 116 30 0 4 0 0 0 0 0 0 0 0 0 0 0 0 0 0 0 0 0 0 0 0 0 0 0 0 0 0 0 0 0 0 0 0 0 0 0 0 0
0 0 0 0 0 0 10 62 43 32 113 105 56 9 0 0 0 0 0 0 0 0 0 0 14 40 1 26 50 25 23 41 95 98 80 70 66 61 62 79 101 109 101 82 33 0 0 0 0 0 0 0 0 0 0 0 0 0 0 0 0 0 0 0 0 0 0 0 0 0 0 0 0 0 0 0 0 0 0 0 0 0 0 0 0
0 0 0 0 0 0 0 0 3 0 0 0 0 0 0 0 0 0 0 0 0 0 0 0 20 18 7 10 9 21 11 0 2 8 0 0 0 0 0 0 0 0 0 0 0 0 0 0 0 0 0 0 0 0 0 0 0 0 0 0 0 0 0 0 0 0 0 0 0 0 0 0 0 0 0 0 0 0 0 0 0 0 0 0 0
0 0 0 0 0 0 0 0 0 0 0 0 0 0 0 0 0 0 0 0 0 0 0 0 0 0 1 23 13 0 0 0 0 0 0 0 0 0 0 0 0 0 0 0 0 0 0 0 0 0 0 0 0 0 0 0 0 0 0 0 0 0 0 0 0 0 0 0 0 0 0 0 0 0 0 0 0 0 0 0 0 0 0 0 0
0 0 0 0 0 0 0 0 0 0 0 0 0 0 0 0 0 0 0 0 0 0 0 0 0 2 6 0 0 0 0 0 0 0 0 0 0 0 0 0 0 0 0 0 0 0 0 0 0 0 0 0 0 0 0 0 0 0 0 0 0 0 0 0 0 0 0 0 0 0 0 0 0 0 0 0 0 0 0 0 0 0 0 0 0
0 0 0 0 0 0 0 0 0 0 0 0 0 0 0 0 0 0 0 0 0 0 0 0 0 0 0 0 0 0 0 0 0 0 0 0 0 0 0 0 0 0 0 0 0 0 0 0 0 0 0 0 0 0 0 0 0 0 0 0 0 0 0 0 0 0 0 0 0 0 0 0 0 0 0 0 0 0 0 0 0 0 0 0 0
0 0 0 0 22 0 0 0 0 0 0 0 0 0 0 0 0 0 0 0 0 0 0 0 0 0 0 0 0 0 0 0 0 0 0 0 0 0 0 0 0 0 0 0 0 0 0 0 0 0 0 0 0 0 0 0 0 0 0 0 0 0 0 0 0 0 0 0 0 0 0 0 0 0 0 0 0 0 0 0 0 0 0 0 0
0 0 0 1 40 47 4 0 0 0 0 0 0 0 0 0 0 0 0 0 0 0 0 0 0 0 0 0 0 0 0 0 0 0 0 0 0 0 0 0 0 0 0 0 0 0 0 0 0 0 0 0 0 0 0 0 0 0 0 0 0 0 0 0 0 0 0 0 0 0 0 0 0 0 0 0 0 0 0 0 0 0 0 0 0
0 0 0 0 0 0 0 1 0 0 0 0 0 0 0 0 0 0 0 0 0 0 0 0 0 0 0 0 0 0 0 0 0 0 0 0 0 0 0 0 0 0 0 0 0 0 0 0 0 0 0 0 0 0 0 0 0 0 0 0 0 0 0 0 0 0 0 0 0 0 0 0 0 0 0 0 0 0 0 0 0 0 0 0 0
1 105 30 10 0 0 0 0 0 0 0 0 0 46 9 0 0 0 0 0 0 0 0 0 0 0 0 0 0 0 0 0 0 0 0 0 0 0 0 0 0 0 0 0 0 0 0 0 0 0 0 0 0 0 0 0 0 0 0 0 0 0 0 0 0 0 0 0 0 0 0 0 0 0 0 0 0 0 0 0 0 0 0 0 0
0 0 4 31 2 0 0 0 0 0 0 0 2 5 81 89 21 0 0 0 0 0 0 0 0 0 0 0 0 0 0 0 0 0 0 0 0 0 0 0 0 0 0 0 0 0 0 0 0 0 0 0 0 0 0 0 0 0 0 0 0 0 0 0 0 0 0 0 0 0 0 0 0 0 0 0 0 0 0 0 0 0 0 0 0
0 0 0 0 0 0 0 0 0 0 0 0 0 0 0 6 34 14 6 3 0 0 0 0 0 0 0 0 0 0 0 0 0 0 0 0 0 0 0 0 0 0 0 0 0 0 0 0 0 0 0 0 0 0 0 0 0 0 0 0 0 0 0 0 0 0 0 0 0 0 0 0 0 0 0 0 0 0 0 0 0 0 0 0 0
0 0 0 0 0 0 0 0 0 0 0 0 0 0 0 0 0 0 0 4 10 0 0 0 0 0 0 0 0 0 0 0 0 0 0 0 0 0 0 0 0 0 0 0 0 0 0 0 0 0 0 0 0 0 0 0 0 0 0 0 0 0 0 0 0 0 0 0 0 0 0 0 0 0 0 0 0 0 0 0 0 0 0 0 0
0 0 0 0 0 0 0 0 0 0 0 0 0 0 0 0 0 0 0 0 12 0 0 0 0 0 0 0 0 0 0 0 0 0 0 0 0 0 0 0 0 0 0 0 0 0 0 0 0 0 0 0 0 0 0 0 0 0 0 0 0 0 0 0 0 0 0 0 0 0 0 0 0 0 0 0 0 0 0 0 0 0 0 0 0
0 0 0 0 0 0 0 8 0 0 5 0 0 0 1 10 0 0 0 0 0 0 0 0 0 0 0 0 0 0 0 0 0 0 0 0 0 0 0 0 0 0 0 0 0 0 0 0 0 0 0 0 0 0 0 0 0 0 0 0 0 0 0 0 0 0 0 0 0 0 0 0 0 0 0 0 0 0 0 0 0 0 0 0 0
0 0 0 0 0 0 0 0 0 0 0 2 0 10 4 0 0 0 0 0 0 0 0 0 0 0 0 0 0 0 0 0 0 0 0 0 0 0 0 0 0 0 0 0 0 0 0 0 0 0 0 0 0 0 0 0 0 0 0 0 0 0 0 0 0 0 0 0 0 0 0 0 0 0 0 0 0 0 0 0 0 0 0 0 0
0 0 0 0 0 0 0 0 0 0 8 5 0 0 0 0 0 0 0 0 0 0 0 0 0 0 0 0 0 0 0 0 0 0 0 0 0 0 0 0 0 0 0 0 0 0 0 0 0 0 0 0 0 0 0 0 0 0 0 0 0 0 0 0 0 0 0 0 0 0 0 0 0 0 0 0 0 0 0 0 0 0 0 0 0
0 0 0 0 0 0 0 0 0 0 0 0 0 0 0 0 3 7 8 4 0 0 0 0 0 0 0 0 0 0 0 0 0 0 0 0 0 0 0 0 0 0 0 0 0 0 0 0 0 0 0 0 0 0 0 0 0 0 0 0 0 0 0 0 0 0 0 0 0 0 0 0 0 0 0 0 0 0 0 0 0 0 0 0 0
0 0 0 0 0 0 0 0 0 0 0 0 1 0 0 0 0 0 0 3 1 0 0 0 0 0 0 0 0 0 0 0 0 0 0 0 0 0 0 0 0 0 0 0 0 0 0 0 0 0 0 0 0 0 0 0 0 0 0 0 0 0 0 0 0 0 0 0 0 0 0 0 0 0 0 0 0 0 0 0 0 0 0 0 0
0 0 0 0 0 0 0 0 0 0 1 11 1 0 0 0 0 0 0 0 0 3 2 0 0 0 0 0 0 0 0 0 0 0 0 0 0 0 0 0 0 0 0 0 0 0 0 0 0 0 0 0 0 0 0 0 0 0 0 0 0 0 0 0 0 0 0 0 0 1 0 0 0 0 0 0 0 0 0 0 0 0 0 1 5
0 0 0 0 0 0 0 0 2 0 0 0 0 0 0 0 0 0 0 0 0 0 1 0 0 0 0 0 0 0 0 0 0 0 0 0 0 0 0 0 0 0 0 0 0 0 0 0 0 0 0 0 0 0 0 0 0 0 0 0 0 0 0 0 0 0 1 0 0 0 0 0 0 0 0 0 0 0 0 0 0 1 4 5 4
5 160 113 28 0 0 0 0 0 0 0 0 0 0 0 2 1 0 0 0 0 1 0 0 0 0 0 0 0 0 0 0 0 0 0 0 0 0 0 0 0 0 0 0 0 0 0 0 0 0 0 0 0 0 0 0 0 0 0 0 0 0 1 2 0 1 1 1 1 0 0 0 0 0 0 0 0 0 1 2 3 2 4 0 9
154 80 63 23 95 0 0 0 15 0 0 0 0 0 0 6 10 4 0 0 0 0 0 0 0 0 0 0 0 0 0 0 0 0 0 0 0 0 0 0 0 0 0 0 0 0 0 0 0 0 0 0 0 0 0 2 2 1 0 0 1 1 2 2 3 3 2 3 2 1 0 0 0 0 0 0 0 0 4 5 3 1 3 1 4
0 0 0 0 0 0 0 0 0 0 0 0 9 7 2 9 6 4 1 2 0 3 3 0 0 0 0 0 0 0 0 0 0 0 0 0 0 0 0 0 0 0 0 0 0 0 0 0 0 0 0 0 0 0 0 2 1 1 2 4 6 6 6 8 7 6 4 3 2 0 0 0 0 0 0 0 1 3 8 6 0 3 1 2 2
0 0 0 0 69 86 81 69 47 0 0 0 0 0 0 0 0 4 0 0 0 1 2 4 0 0 0 0 0 0 0 0 0 0 0 0 0 0 0 0 0 0 0 0 0 0 0 0 0 0 0 0 0 0 1 2 3 4 5 5 4 5 5 4 2 1 1 1 0 0 0 0 0 0 0 0 0 2 2 0 1 2 3 5 4
77 105 101 98 86 78 66 0 44 54 9 18 34 7 1 2 0 2 0 0 0 1 0 0 0 0 0 0 0 0 0 0 0 0 0 0 0 0 0 0 0 0 0 0 0 0 0 0 0 0 0 8 1 2 2 4 4 4 4 3 4 4 4 4 3 3 2 2 1 0 0 0 0 0 0 2 2 1 6 1 4 4 3 1 1
Wind_Speed
7 7 8 8 9 9 8 9 9 9 8 7 6 5 5 5 3 3 5 3 3 4 4 4 4 3 3 2 2 1 1 2 2 3 3 1 1 2 1 2 1 0 1 1 1 2 2 2 2 2 2 3 2 1 4 4 3 1 2 4 4 5 6 5 4 4 3 4 5 6 5 3 4 5 5 7 8 9 9 8 8 7 8 7 5
8 8 8 8 9 9 9 9 10 10 8 8 7 7 6 6 5 6 5 5 5 5 5 5 5 4 4 4 3 3 3 3 4 5 4 3 3 3 2 3 2 1 3 2 2 3 2 2 2 2 1 1 1 1 0 2 1 2 2 1 1 1 3 3 4 3 4 2 3 4 5 5 5 6 6 8 9 8 9 8 7 5 6 4 2
10 10 10 11 9 9 10 10 11 10 9 10 8 8 7 7 8 7 6 7 7 6 6 6 6 5 5 5 5 5 4 3 5 6 5 5 5 4 3 4 5 4 5 4 4 5 4 4 2 2 3 2 2 1 1 1 3 2 1 1 1 1 1 3 3 2 3 4 4 3 4 4 6 7 7 7 8 7 6 6 4 4 2 2 3
12 12 12 12 11 10 10 10 10 11 10 10 9 9 9 9 10 8 8 8 7 7 7 7 8 7 6 6 6 5 5 4 5 5 6 6 5 5 3 4 5 5 5 5 5 5 4 4 3 3 4 4 3 2 3 4 4 5 3 2 3 1 1 4 4 4 3 2 2 3 4 3 5 6 6 5 4 3 4 4 2 2 2 3 5
14 13 13 12 13 12 10 10 10 10 11 11 10 10 10 10 11 10 10 10 9 9 9 10 10 9 7 7 7 6 5 5 5 5 5 6 6 5 5 5 6 5 5 5 5 5 5 5 3 4 4 5 4 6 5 5 5 6 5 5 4 4 4 4 4 5 5 3 2 3 4 4 6 4 4 3 1 2 4 4 5 5 4 5 6
16 15 14 14 14 13 12 12 11 10 10 11 10 10 10 10 11 11 11 10 11 11 11 11 11 10 9 9 9 7 6 7 7 7 6 6 6 6 6 6 6 6 6 6 6 6 6 5 5 5 6 6 5 7 8 7 8 7 6 5 6 6 4 5 7 8 7 6 6 3 4 3 4 3 4 7 4 5 5 6 8 10 9 8 9
17 16 16 15 16 15 15 14 14 12 11 10 10 10 10 10 10 10 11 11 11 12 12 12 12 11 10 11 11 10 10 9 9 8 8 7 7 7 7 6 7 8 8 7 6 7 6 5 4 5 6 5 5 6 7 8 8 8 7 7 9 10 9 8 10 10 10 8 7 7 5 5 8 5 5 8 9 11 11 9 9 13 14 13 11
16 16 16 16 17 16 16 17 17 16 15 13 12 11 11 12 11 11 12 12 11 12 12 12 13 13 12 12 11 11 11 11 11 10 10 9 9 9 9 8 10 10 8 7 7 7 6 6 4 5 6 6 7 6 9 7 8 7 7 10 12 13 11 12 12 12 11 11 10 8 9 9 8 10 10 12 13 12 15 16 13 11 12 15 14
15 15 16 16 17 18 18 19 19 18 16 16 14 13 13 13 13 13 14 13 13 13 13 14 15 13 13 13 13 12 12 11 12 12 12 11 12 12 11 12 13 11 9 8 8 7 8 7 6 5 6 6 6 7 9 9 8 7 8 12 12 12 12 13 13 12 12 12 9 10 11 10 9 11 11 12 12 11 12 16 15 13 12 11 12
15 14 14 15 17 18 18 19 19 19 18 17 17 16 14 14 14 14 15 15 15 15 16 17 17 16 16 14 13 13 14 15 16 13 13 14 14 13 14 14 13 12 11 10 9 9 8 9 9 4 6 11 17 14 9 6 8 10 11 12 11 11 12 12 11 12 12 10 9 9 9 9 9 11 11 11 10 12 12 12 11 11 12 12 15
18 16 14 14 16 18 19 18 19 19 20 19 17 18 17 16 16 16 16 16 16 16 18 18 18 18 18 16 14 18 20 22 23 20 18 17 17 17 16 16 16 16 15 13 12 13 12 13 13 17 20 19 17 19 18 20 19 15 13 13 13 13 13 12 11 13 13 12 11 10 9 8 8 10 10 9 11 12 11 11 10 11 12 12 10
21 19 18 19 19 18 18 19 20 22 24 25 24 23 22 23 23 21 19 20 20 20 19 18 19 20 21 22 22 23 23 23 23 24 24 22 21 21 20 19 18 18 17 18 17 17 18 19 19 20 21 21 20 19 19 19 19 18 15 12 12 11 13 15 15 15 15 14 12 10 10 9 9 10 9 12 11 11 12 12 12 13 12 12 13
28 27 28 28 26 22 20 20 21 24 25 25 25 24 24 25 25 25 25 23 23 23 22 22 22 23 24 24 24 24 25 25 24 25 25 25 24 22 21 21 21 20 22 22 22 23 24 24 24 23 22 26 24 22 22 20 20 22 22 19 15 14 14 14 16 17 18 17 16 13 13 12 13 13 13 13 15 15 15 13 13 13 13 12 12
31 33 34 33 32 32 30 26 25 25 26 26 26 26 25 24 24 25 27 27 27 26 25 24 24 24 24 26 26 27 27 27 26 25 25 25 25 25 23 24 26 27 25 25 26 26 26 27 28 27 24 25 25 26 25 24 24 24 23 22 20 19 19 19 19 20 20 19 19 18 16 17 14 15 14 18 18 16 15 14 15 14 15 14 13
28 32 32 29 29 30 31 34 35 34 33 30 28 27 28 28 26 26 28 29 28 27 27 27 27 27 28 29 29 29 29 29 28 28 27 26 25 25 26 27 28 28 28 28 29 29 29 30 30 30 28 27 28 28 28 26 27 27 26 25 24 23 24 24 26 26 25 23 22 20 18 18 17 16 16 18 19 18 17 16 17 17 15 15 16
26 30 30 27 30 31 32 32 32 31 30 28 30 31 29 27 26 27 29 29 28 29 28 27 27 28 28 29 31 31 29 30 29 29 29 27 27 28 29 29 29 29 29 30 31 32 32 32 32 32 30 30 30 29 28 27 28 29 28 26 25 25 25 27 26 26 26 24 23 21 20 19 18 17 17 18 19 20 18 18 19 20 18 18 19
33 34 34 34 34 35 35 35 34 32 29 28 29 29 28 26 26 28 29 27 27 27 27 27 27 28 28 28 31 31 30 30 31 31 31 29 28 29 29 30 31 31 30 31 33 34 34 33 32 32 32 32 32 31 30 29 30 29 28 27 25 24 26 26 27 27 25 23 21 21 19 18 18 17 19 20 23 23 22 22 21 21 21 19 19
32 35 38 40 40 39 37 35 32 31 28 29 32 31 29 28 28 30 30 28 29 30 30 31 31 29 29 30 30 32 32 31 32 34 33 32 30 30 30 32 32 32 33 32 34 35 35 39 36 35 35 34 34 33 34 32 31 30 29 28 26 26 27 27 27 27 26 25 25 25 23 23 24 26 29 28 26 26 25 25 22 23 21 21 19
27 29 34 38 40 40 38 35 33 31 30 31 32 34 35 33 34 33 33 33 32 32 33 35 35 34 33 33 35 35 34 34 35 36 36 34 32 32 34 34 36 35 36 36 37 38 38 39 40 37 35 35 37 38 38 36 33 31 29 29 30 31 30 28 28 29 30 30 31 30 30 30 32 33 33 33 33 30 27 26 25 25 23 22 21
26 25 27 29 32 35 33 30 28 28 31 33 35 36 37 37 35 35 35 36 36 34 35 37 39 38 37 36 35 34 37 37 38 38 38 37 35 36 37 38 36 35 35 37 38 36 35 34 35 34 33 35 38 40 39 37 35 33 31 33 33 32 31 30 31 32 32 33 33 34 34 33 34 33 32 32 31 30 nan nan nan nan nan 26 25
29 28 27 27 26 27 28 28 27 26 28 29 34 39 40 39 36 34 36 38 38 37 38 40 41 40 39 38 35 34 39 42 41 42 42 41 41 40 37 37 36 35 35 35 32 30 31 32 32 32 32 33 35 36 36 34 34 34 33 33 nan nan nan 32 32 34 35 37 38 37 35 34 nan 31 31 nan nan nan nan nan nan nan nan nan nan
28 29 29 29 28 27 28 28 27 27 26 25 24 28 32 32 33 34 36 38 39 39 40 40 42 41 39 41 39 39 44 47 41 41 43 43 43 41 40 37 34 34 35 33 33 31 31 29 29 30 30 30 26 27 30 33 31 32 nan nan nan nan nan 32 33 34 nan nan nan nan nan nan nan nan nan nan nan nan nan nan nan nan nan nan nan
31 32 31 31 29 28 28 29 28 28 28 27 27 26 24 24 26 29 33 36 37 39 38 38 42 42 38 39 43 45 45 45 43 41 43 48 49 49 48 44 44 40 38 35 32 31 28 22 21 26 27 26 23 22 26 29 29 31 nan nan nan nan nan nan 31 nan nan nan nan nan nan nan nan nan nan nan nan nan nan nan nan nan nan nan nan
33 35 35 35 35 32 nan 33 33 31 31 32 32 31 28 26 26 26 30 33 33 34 33 33 39 42 41 40 45 47 47 46 48 47 47 51 50 52 52 50 49 45 41 36 33 32 25 19 20 18 19 21 21 21 23 nan nan nan nan nan nan nan nan nan nan nan nan nan nan nan nan nan nan nan nan nan nan nan nan nan nan nan nan nan nan
36 36 nan 34 35 35 35 nan 35 34 33 33 32 31 32 32 31 28 31 32 31 28 25 26 29 32 36 41 45 46 46 46 nan 49 55 53 52 53 53 52 49 47 42 39 36 32 nan nan nan 24 25 23 nan nan nan nan nan nan nan nan nan nan nan nan nan nan nan nan nan nan nan nan nan nan nan nan nan nan nan nan nan nan nan nan nan
nan nan 37 34 33 33 33 31 31 32 33 33 33 32 nan nan nan 32 33 nan 33 30 nan nan nan nan nan 34 41 42 41 nan 42 45 48 nan nan nan nan nan 51 50 45 41 40 nan nan nan nan nan nan nan nan nan nan nan nan nan nan nan nan nan nan nan nan nan nan nan nan nan nan nan nan nan nan nan nan nan nan nan nan nan nan nan nan
nan nan nan nan nan nan nan nan nan nan 36 37 nan nan nan nan nan nan nan nan nan nan nan nan nan nan nan nan nan nan nan nan nan nan nan nan nan nan nan nan 51 49 46 nan nan nan nan nan nan nan nan nan nan nan nan nan nan nan nan nan nan nan nan nan nan nan nan nan nan nan nan nan nan nan nan nan nan nan nan nan nan nan nan nan nan
nan nan nan nan nan nan nan nan nan nan nan nan nan nan nan nan nan nan nan nan nan nan nan nan nan nan nan nan nan nan nan nan nan nan nan nan nan nan nan nan nan nan nan nan nan nan nan nan nan nan nan nan nan nan nan nan nan nan nan nan nan nan nan nan nan nan nan nan nan nan nan nan nan nan nan nan nan nan nan nan nan nan nan nan nan
nan nan nan nan nan nan nan nan nan nan nan nan nan nan nan nan nan nan nan nan nan nan nan nan nan nan nan nan nan nan nan nan nan nan nan nan nan nan nan nan nan nan nan nan nan nan nan nan nan nan nan nan nan nan nan nan nan nan nan nan nan nan nan nan nan nan nan nan nan nan nan nan nan nan nan nan nan nan nan nan nan nan nan nan nan
nan nan nan nan nan nan nan nan nan nan nan nan nan nan nan nan nan nan nan nan nan nan nan nan nan nan nan nan nan nan nan nan nan nan nan nan nan nan nan nan nan nan nan nan nan nan nan nan nan nan nan nan nan nan nan nan nan nan nan nan nan nan nan nan nan nan nan nan nan nan nan nan nan nan nan nan nan nan nan nan nan nan nan nan nan
nan nan nan nan nan nan nan nan nan nan nan nan nan nan nan nan nan nan nan nan nan nan nan nan nan nan nan nan nan nan nan nan nan nan nan nan nan nan nan nan nan nan nan nan nan nan nan nan nan nan nan nan nan nan nan nan nan nan nan nan nan nan nan nan nan nan nan nan nan nan nan nan nan nan nan nan nan nan nan nan nan nan nan nan nan
nan nan nan nan nan nan nan nan nan nan nan nan nan nan nan nan nan nan nan nan nan nan nan nan nan nan nan nan nan nan nan nan nan nan nan nan nan nan nan nan nan nan nan nan nan nan nan nan nan nan nan nan nan nan nan nan nan nan nan nan nan nan nan nan nan nan nan nan nan nan nan nan nan nan nan nan nan nan nan nan nan nan nan nan nan
nan nan nan nan nan nan nan nan nan nan nan nan nan nan nan nan nan nan nan nan nan nan nan nan nan nan nan nan nan nan nan nan nan nan nan nan nan nan nan nan nan nan nan nan nan nan nan nan nan nan nan nan nan nan nan nan nan nan nan nan nan nan nan nan nan nan nan nan nan nan nan nan nan nan nan nan nan nan nan nan nan nan nan nan nan
nan nan nan nan nan nan nan nan nan nan nan nan nan nan nan nan nan nan nan nan nan nan nan nan nan nan nan nan nan nan nan nan nan nan nan nan nan nan nan nan nan nan nan nan nan nan nan nan nan nan nan nan nan nan nan nan nan nan nan nan nan nan nan nan nan nan nan nan nan nan nan nan nan nan nan nan nan nan nan nan nan nan nan nan nan
nan 46 nan nan nan nan nan nan nan nan nan nan nan nan nan nan nan nan nan nan nan nan nan nan nan nan nan nan nan nan nan nan nan nan nan nan nan nan nan nan nan nan nan nan nan nan nan nan nan nan nan nan nan nan nan nan nan nan nan nan nan nan nan nan nan nan nan nan nan nan nan nan nan nan nan nan nan nan nan nan nan nan nan nan nan
nan nan nan nan nan nan nan nan nan nan nan nan nan nan nan nan nan nan nan nan nan nan nan nan nan nan nan nan nan nan nan nan nan nan nan nan nan nan nan nan nan nan nan nan nan nan nan nan nan nan nan nan nan nan nan nan nan nan nan nan nan nan nan nan nan nan nan nan nan nan nan nan nan nan nan nan nan nan nan nan nan nan nan nan nan
nan nan nan nan nan nan nan nan nan nan nan nan nan nan nan nan nan nan nan nan nan nan nan nan nan nan nan nan nan nan nan nan nan nan nan nan nan nan nan nan nan nan nan nan nan nan nan nan nan nan nan nan nan nan nan nan nan nan nan nan nan nan nan nan nan nan nan nan nan nan nan nan nan nan nan nan nan nan nan nan nan nan nan nan nan
nan nan nan nan nan nan nan nan nan nan nan nan nan nan nan nan nan nan nan nan nan nan nan nan nan nan nan nan nan nan nan nan nan nan nan nan nan nan nan nan nan nan nan nan nan nan nan nan nan nan nan nan nan nan nan nan nan nan nan nan nan nan nan nan nan nan nan nan nan nan nan nan nan nan nan nan nan nan nan nan nan nan nan nan nan
nan nan nan nan nan nan nan nan nan nan nan nan nan nan nan nan nan nan nan nan nan nan nan nan nan nan nan nan nan nan nan nan nan nan nan nan nan nan nan nan nan nan nan nan nan nan nan nan nan nan nan nan nan nan nan nan nan nan nan nan nan nan nan nan nan nan nan nan nan nan nan nan nan nan nan nan nan nan nan nan nan nan nan nan nan
nan nan nan nan nan nan nan nan nan nan nan nan nan nan nan nan nan nan nan nan nan nan nan nan nan nan nan nan nan nan nan nan nan nan nan nan nan nan nan nan nan nan nan nan nan nan nan nan nan nan nan nan nan nan nan nan nan nan nan nan nan nan nan nan nan nan nan nan nan nan nan nan nan nan nan nan nan nan nan nan nan nan nan nan nan
nan nan nan nan nan nan nan nan nan nan nan nan nan nan nan nan nan nan nan nan nan nan nan nan nan nan nan nan nan nan nan nan nan nan nan nan nan nan nan nan nan nan nan nan nan nan nan nan nan nan nan nan nan nan nan nan nan nan nan nan nan nan nan nan nan nan nan nan nan nan nan nan nan nan nan nan nan nan nan nan nan nan nan nan nan
nan nan nan nan nan nan nan nan nan nan nan nan nan nan nan nan nan nan nan nan nan nan nan nan nan nan nan nan nan nan nan nan nan nan nan nan nan nan nan nan nan nan nan nan nan nan nan nan nan nan nan nan nan nan nan nan nan nan nan nan nan nan nan nan nan nan nan nan nan nan nan nan nan nan nan nan nan nan nan nan nan nan nan nan nan
nan nan nan nan nan nan nan nan nan nan nan nan nan nan nan nan nan nan nan nan nan nan nan nan nan nan nan nan nan nan nan nan nan nan nan nan nan nan nan nan nan nan nan nan nan nan nan nan nan nan nan nan nan nan nan nan nan nan nan nan nan nan nan nan nan nan nan nan nan nan nan nan nan nan nan nan nan nan nan nan nan nan nan nan nan
nan nan nan nan nan nan nan nan nan nan nan nan nan nan nan nan nan nan nan nan nan nan nan nan nan nan nan nan nan nan nan nan nan nan nan nan nan nan nan nan nan nan nan nan nan nan nan nan nan nan nan nan nan nan nan nan nan nan nan nan nan nan nan nan nan nan nan nan nan nan nan nan nan nan nan nan nan nan nan nan nan nan nan nan nan
nan nan nan nan nan nan nan nan nan nan nan nan nan nan nan nan nan nan nan nan nan nan nan nan nan nan nan nan nan nan nan nan nan nan nan nan nan nan nan nan nan nan nan nan nan nan nan nan nan nan nan nan nan nan nan nan nan nan nan nan nan nan nan nan nan nan nan nan nan nan nan nan nan nan nan nan nan nan nan nan nan nan nan nan nan
nan nan nan nan nan nan nan nan nan nan nan nan nan nan nan nan nan nan nan nan nan nan nan nan nan nan nan nan nan nan nan nan nan nan nan nan nan nan nan nan nan nan nan nan nan nan nan nan nan nan nan nan nan nan nan nan nan nan nan nan nan nan nan nan nan nan nan nan nan nan nan nan nan nan nan nan nan nan nan nan nan nan nan nan nan
nan 46 47 nan nan nan nan nan nan nan nan nan nan nan nan nan nan nan nan nan nan nan nan nan nan nan nan nan nan nan nan nan nan nan nan nan nan nan nan nan nan nan nan nan nan nan nan nan nan nan nan nan nan nan nan nan nan nan nan nan nan nan nan nan nan nan nan nan nan nan nan nan nan nan nan nan nan nan nan nan nan nan nan nan nan
48 nan nan nan nan nan nan nan nan nan nan nan nan nan nan nan nan nan nan nan nan nan nan nan nan nan nan nan nan nan nan nan nan nan nan nan nan nan nan nan nan nan nan nan nan nan nan nan nan nan nan nan nan nan nan nan nan nan nan nan nan nan nan nan nan nan nan nan nan nan nan nan nan nan nan nan nan nan nan nan nan nan nan nan nan
nan nan nan nan nan nan nan nan nan nan nan nan nan nan nan nan nan nan nan nan nan nan nan nan nan nan nan nan nan nan nan nan nan nan nan nan nan nan nan nan nan nan nan nan nan nan nan nan nan nan nan nan nan nan nan nan nan nan nan nan nan nan nan nan nan nan nan nan nan nan nan nan nan nan nan nan nan nan nan nan nan nan nan nan nan
nan nan nan nan nan nan nan nan nan nan nan nan nan nan nan nan nan nan nan nan nan nan nan nan nan nan nan nan nan nan nan nan nan nan nan nan nan nan nan nan nan nan nan nan nan nan nan nan nan nan nan nan nan nan nan nan nan nan nan nan nan nan nan nan nan nan nan nan nan nan nan nan nan nan nan nan nan nan nan nan nan nan nan nan nan
nan 46 47 nan nan nan nan nan nan nan nan nan nan nan nan nan nan nan nan nan nan nan nan nan nan nan nan nan nan nan nan nan nan nan nan nan nan nan nan nan nan nan nan nan nan nan nan nan nan nan nan nan nan nan nan nan nan nan nan nan nan nan nan nan nan nan nan nan nan nan nan nan nan nan nan nan nan nan nan nan nan nan nan nan nan
Wind_Direction
234 232 235 231 230 225 218 214 219 222 230 241 250 253 246 247 241 233 229 225 225 217 212 222 225 226 227 211 232 253 281 289 292 288 294 303 271 283 265 282 293 117 291 155 190 199 179 171 159 163 203 215 219 234 253 265 249 236 261 296 308 311 315 328 11 76 91 24 32 36 48 19 48 28 68 75 83 91 102 93 101 108 100 77 50
227 232 234 239 242 238 229 224 226 226 231 239 242 245 247 245 239 233 235 223 229 225 223 223 230 243 240 240 245 271 287 301 308 303 309 309 298 294 300 289 292 278 274 267 221 224 245 246 216 191 218 311 273 200 261 247 244 168 177 233 161 336 326 327 18 27 63 84 66 53 53 15 37 49 54 75 83 90 106 111 114 111 98 82 54
228 231 235 237 245 246 238 232 230 231 237 238 243 245 244 241 240 240 235 228 224 231 234 239 244 247 244 248 255 262 279 294 294 299 304 305 308 304 304 302 300 287 277 270 258 249 240 258 261 254 254 267 289 314 290 339 300 289 225 243 212 130 326 337 324 38 69 66 24 32 27 26 26 52 65 52 55 57 79 101 114 108 83 16 334
233 234 235 236 239 246 244 237 239 236 240 241 246 245 245 242 243 245 237 235 236 230 239 247 251 254 255 254 261 263 276 286 291 296 305 303 299 301 294 282 282 282 280 276 271 267 273 261 255 257 259 260 264 271 288 295 292 288 275 254 278 246 297 303 338 353 353 353 28 3 16 22 34 35 37 44 44 74 33 52 16 332 311 293 304
237 239 241 245 241 244 251 248 245 241 241 242 246 246 246 245 244 245 243 241 243 243 238 241 249 255 258 260 258 262 275 287 292 295 293 291 294 292 287 284 283 282 280 279 278 276 272 278 284 283 285 295 274 276 271 253 253 260 257 262 275 271 270 291 295 306 313 346 344 340 338 345 360 20 348 316 0 337 334 314 314 318 307 315 320
240 241 242 247 245 249 253 256 257 254 249 247 252 253 251 249 250 245 245 248 246 249 251 245 248 250 253 258 260 266 274 282 292 294 296 293 293 287 281 280 283 283 278 281 281 280 276 278 285 289 289 296 293 276 268 262 256 257 258 256 264 267 280 276 286 300 302 303 304 286 281 307 286 311 312 288 289 312 308 312 307 309 311 314 322
245 247 247 247 245 249 255 260 261 262 259 258 256 258 261 260 265 263 255 253 252 250 251 250 247 254 256 259 261 266 274 278 282 285 286 286 290 289 287 281 272 258 260 272 277 274 277 277 284 294 293 299 299 296 287 273 266 263 267 266 270 277 280 278 272 272 271 268 271 299 293 283 292 283 270 275 297 311 309 294 298 312 314 317 320
250 250 249 247 246 248 251 254 257 261 261 260 259 262 265 267 273 275 271 268 263 257 256 256 254 256 262 269 271 271 275 277 277 280 281 283 285 290 294 291 277 269 257 259 269 274 278 276 276 281 294 298 303 300 293 291 280 278 279 277 279 282 284 275 271 273 274 275 282 272 276 276 256 283 283 274 277 285 296 300 299 293 300 314 324
258 255 251 250 247 245 245 245 249 253 256 258 258 259 263 267 274 277 276 277 276 272 269 267 263 264 265 269 270 270 274 275 271 272 276 278 282 286 287 285 283 283 276 269 270 272 271 277 278 280 295 330 347 328 312 310 299 300 287 287 291 292 289 281 276 271 271 273 265 277 274 266 275 272 265 276 274 285 291 289 299 304 310 312 326
255 255 253 253 250 248 248 244 245 247 248 252 254 256 260 264 268 275 279 282 284 284 282 279 276 274 274 272 267 264 262 261 258 273 273 273 276 274 274 275 274 273 275 276 269 274 280 275 270 272 252 251 262 267 285 316 330 308 291 292 294 295 295 290 283 281 277 273 278 276 266 269 273 276 282 287 286 287 280 283 285 299 303 313 324
240 241 243 246 251 251 250 247 244 243 243 246 245 248 252 262 270 268 268 270 273 276 283 283 279 275 275 274 269 255 246 244 238 242 250 253 261 268 272 272 272 273 273 272 273 262 257 257 259 263 259 252 255 247 252 257 261 274 283 295 300 295 294 293 290 290 288 289 287 280 284 282 277 280 283 281 284 284 287 285 290 289 290 289 292
245 238 230 228 234 242 244 246 244 241 241 241 243 243 244 245 252 258 261 263 262 264 266 270 272 273 266 259 257 255 254 247 244 247 250 256 262 267 270 272 274 274 269 269 269 269 264 261 261 263 261 261 263 260 257 254 254 256 261 273 289 297 293 294 293 290 292 293 287 291 291 294 288 279 280 280 275 275 278 280 289 290 290 294 304
237 239 234 227 222 226 234 240 240 242 244 245 245 241 242 242 246 252 254 251 252 257 262 264 267 268 270 269 264 259 258 252 253 255 258 262 264 269 273 272 273 273 273 273 270 266 264 264 262 258 259 254 261 264 266 265 260 257 262 270 280 292 296 293 289 288 286 289 292 287 290 287 283 285 286 280 279 278 278 277 285 290 292 294 297
236 241 243 239 234 228 223 227 234 239 246 249 247 244 241 242 242 245 250 247 248 250 251 253 256 262 268 270 264 257 255 248 246 251 256 259 263 267 271 272 271 272 274 273 270 269 269 270 268 263 261 262 263 264 265 265 265 265 265 265 266 263 265 275 287 285 284 287 289 292 288 288 288 288 283 283 278 279 281 285 288 287 289 295 295
244 248 251 250 248 245 244 244 239 228 223 228 235 242 240 237 235 237 242 252 255 254 253 251 248 250 253 257 260 257 253 246 247 248 249 252 257 266 268 269 269 271 272 273 273 272 270 269 269 270 267 264 263 261 265 264 265 266 266 265 264 268 269 270 270 272 275 282 287 293 293 291 292 289 289 289 289 291 291 293 288 289 293 294 294
245 251 252 249 246 246 245 247 253 254 244 234 237 238 238 241 244 244 245 246 247 249 248 250 253 253 253 257 260 260 255 250 250 249 248 249 257 264 266 268 268 269 269 268 268 267 267 269 270 270 270 268 261 254 258 264 267 267 267 266 267 269 271 272 269 267 272 277 280 281 284 284 285 286 284 285 288 289 284 283 284 286 284 282 279
231 236 241 239 239 239 245 253 253 251 249 248 244 245 249 246 249 251 254 253 254 253 255 254 256 258 256 255 259 258 256 253 252 252 251 248 256 260 264 268 271 272 271 269 269 268 267 268 270 272 271 269 263 258 254 255 267 268 268 269 269 270 271 269 264 262 260 263 268 275 279 280 277 275 278 291 290 281 280 275 274 275 274 271 273
239 240 242 242 242 244 249 255 252 243 239 241 245 250 249 251 252 253 257 257 253 251 253 254 256 258 258 257 257 258 256 253 251 252 254 254 260 264 265 270 272 273 271 268 266 265 269 273 271 270 271 270 263 260 255 259 263 263 266 266 269 271 269 264 267 266 263 264 269 271 274 274 272 268 271 275 279 281 279 271 275 275 274 274 272
249 251 250 250 249 247 251 255 255 252 248 242 242 250 252 246 245 250 257 258 256 255 257 259 261 261 262 263 264 261 259 256 255 255 255 257 263 267 268 270 272 273 274 270 266 263 260 262 266 268 270 269 264 261 257 259 263 263 264 267 270 273 273 272 270 266 263 263 265 265 266 265 270 271 268 261 267 274 276 273 270 269 268 269 270
249 252 252 247 246 246 249 254 259 263 260 252 246 247 247 245 242 245 250 257 259 258 258 260 263 261 260 261 263 266 267 262 257 254 258 259 263 268 269 272 274 275 277 277 273 269 267 265 260 261 265 268 265 262 259 260 264 262 263 267 270 274 275 275 275 272 272 271 271 270 268 267 267 267 266 266 265 265 nan nan nan nan nan 266 265
249 249 248 245 242 242 243 251 259 261 264 259 247 240 241 245 245 243 247 252 257 259 260 262 263 263 263 261 261 261 263 262 258 254 254 255 259 267 268 267 266 267 269 270 267 271 271 265 264 266 272 274 270 265 261 260 260 263 264 268 nan nan nan 276 275 270 273 272 272 270 268 267 nan 265 264 nan nan nan nan nan nan nan nan nan nan
244 242 245 248 249 251 256 261 263 263 267 272 262 244 240 243 247 250 251 255 257 259 259 257 257 255 257 264 264 261 259 259 260 254 252 253 255 260 265 265 267 267 266 266 266 261 256 257 263 272 276 279 276 266 260 261 261 262 nan nan nan nan nan 279 280 277 nan nan nan nan nan nan nan nan nan nan nan nan nan nan nan nan nan nan nan
253 250 252 256 254 254 255 256 255 259 266 269 270 264 254 249 248 253 257 260 263 266 266 263 260 258 254 254 258 259 258 260 260 258 256 258 258 258 256 255 253 255 255 253 253 257 258 261 268 266 267 270 268 258 250 254 261 263 nan nan nan nan nan nan 277 nan nan nan nan nan nan nan nan nan nan nan nan nan nan nan nan nan nan nan nan
257 256 257 259 258 256 nan 258 259 262 267 269 271 272 269 264 258 255 255 256 257 260 263 260 257 256 255 251 254 256 256 259 260 260 260 258 257 255 254 253 253 252 249 249 247 249 250 253 257 250 255 262 264 256 248 nan nan nan nan nan nan nan nan nan nan nan nan nan nan nan nan nan nan nan nan nan nan nan nan nan nan nan nan nan nan
256 255 nan 254 256 258 259 nan 262 264 265 266 266 265 264 262 259 255 254 251 246 247 252 257 259 261 257 254 252 252 252 255 nan 258 257 256 254 254 255 255 252 250 248 245 243 245 nan nan nan 256 259 264 nan nan nan nan nan nan nan nan nan nan nan nan nan nan nan nan nan nan nan nan nan nan nan nan nan nan nan nan nan nan nan nan nan
nan nan 257 257 256 256 256 256 261 261 261 261 259 254 nan nan nan 256 255 nan 252 254 nan nan nan nan nan 256 253 253 254 nan 252 250 250 nan nan nan nan nan 245 244 244 243 241 nan nan nan nan nan nan nan nan nan nan nan nan nan nan nan nan nan nan nan nan nan nan nan nan nan nan nan nan nan nan nan nan nan nan nan nan nan nan nan nan
nan nan nan nan nan nan nan nan nan nan 255 255 nan nan nan nan nan nan nan nan nan nan nan nan nan nan nan nan nan nan nan nan nan nan nan nan nan nan nan nan 240 238 238 nan nan nan nan nan nan nan nan nan nan nan nan nan nan nan nan nan nan nan nan nan nan nan nan nan nan nan nan nan nan nan nan nan nan nan nan nan nan nan nan nan nan
nan nan nan nan nan nan nan nan nan nan nan nan nan nan nan nan nan nan nan nan nan nan nan nan nan nan nan nan nan nan nan nan nan nan nan nan nan nan nan nan nan nan nan nan nan nan nan nan nan nan nan nan nan nan nan nan nan nan nan nan nan nan nan nan nan nan nan nan nan nan nan nan nan nan nan nan nan nan nan nan nan nan nan nan nan
nan nan nan nan nan nan nan nan nan nan nan nan nan nan nan nan nan nan nan nan nan nan nan nan nan nan nan nan nan nan nan nan nan nan nan nan nan nan nan nan nan nan nan nan nan nan nan nan nan nan nan nan nan nan nan nan nan nan nan nan nan nan nan nan nan nan nan nan nan nan nan nan nan nan nan nan nan nan nan nan nan nan nan nan nan
nan nan nan nan nan nan nan nan nan nan nan nan nan nan nan nan nan nan nan nan nan nan nan nan nan nan nan nan nan nan nan nan nan nan nan nan nan nan nan nan nan nan nan nan nan nan nan nan nan nan nan nan nan nan nan nan nan nan nan nan nan nan nan nan nan nan nan nan nan nan nan nan nan nan nan nan nan nan nan nan nan nan nan nan nan
nan nan nan nan nan nan nan nan nan nan nan nan nan nan nan nan nan nan nan nan nan nan nan nan nan nan nan nan nan nan nan nan nan nan nan nan nan nan nan nan nan nan nan nan nan nan nan nan nan nan nan nan nan nan nan nan nan nan nan nan nan nan nan nan nan nan nan nan nan nan nan nan nan nan nan nan nan nan nan nan nan nan nan nan nan
nan nan nan nan nan nan nan nan nan nan nan nan nan nan nan nan nan nan nan nan nan nan nan nan nan nan nan nan nan nan nan nan nan nan nan nan nan nan nan nan nan nan nan nan nan nan nan nan nan nan nan nan nan nan nan nan nan nan nan nan nan nan nan nan nan nan nan nan nan nan nan nan nan nan nan nan nan nan nan nan nan nan nan nan nan
nan nan nan nan nan nan nan nan nan nan nan nan nan nan nan nan nan nan nan nan nan nan nan nan nan nan nan nan nan nan nan nan nan nan nan nan nan nan nan nan nan nan nan nan nan nan nan nan nan nan nan nan nan nan nan nan nan nan nan nan nan nan nan nan nan nan nan nan nan nan nan nan nan nan nan nan nan nan nan nan nan nan nan nan nan
nan nan nan nan nan nan nan nan nan nan nan nan nan nan nan nan nan nan nan nan nan nan nan nan nan nan nan nan nan nan nan nan nan nan nan nan nan nan nan nan nan nan nan nan nan nan nan nan nan nan nan nan nan nan nan nan nan nan nan nan nan nan nan nan nan nan nan nan nan nan nan nan nan nan nan nan nan nan nan nan nan nan nan nan nan
nan 270 nan nan nan nan nan nan nan nan nan nan nan nan nan nan nan nan nan nan nan nan nan nan nan nan nan nan nan nan nan nan nan nan nan nan nan nan nan nan nan nan nan nan nan nan nan nan nan nan nan nan nan nan nan nan nan nan nan nan nan nan nan nan nan nan nan nan nan nan nan nan nan nan nan nan nan nan nan nan nan nan nan nan nan
nan nan nan nan nan nan nan nan nan nan nan nan nan nan nan nan nan nan nan nan nan nan nan nan nan nan nan nan nan nan nan nan nan nan nan nan nan nan nan nan nan nan nan nan nan nan nan nan nan nan nan nan nan nan nan nan nan nan nan nan nan nan nan nan nan nan nan nan nan nan nan nan nan nan nan nan nan nan nan nan nan nan nan nan nan
nan nan nan nan nan nan nan nan nan nan nan nan nan nan nan nan nan nan nan nan nan nan nan nan nan nan nan nan nan nan nan nan nan nan nan nan nan nan nan nan nan nan nan nan nan nan nan nan nan nan nan nan nan nan nan nan nan nan nan nan nan nan nan nan nan nan nan nan nan nan nan nan nan nan nan nan nan nan nan nan nan nan nan nan nan
nan nan nan nan nan nan nan nan nan nan nan nan nan nan nan nan nan nan nan nan nan nan nan nan nan nan nan nan nan nan nan nan nan nan nan nan nan nan nan nan nan nan nan nan nan nan nan nan nan nan nan nan nan nan nan nan nan nan nan nan nan nan nan nan nan nan nan nan nan nan nan nan nan nan nan nan nan nan nan nan nan nan nan nan nan
nan nan nan nan nan nan nan nan nan nan nan nan nan nan nan nan nan nan nan nan nan nan nan nan nan nan nan nan nan nan nan nan nan nan nan nan nan nan nan nan nan nan nan nan nan nan nan nan nan nan nan nan nan nan nan nan nan nan nan nan nan nan nan nan nan nan nan nan nan nan nan nan nan nan nan nan nan nan nan nan nan nan nan nan nan
nan nan nan nan nan nan nan nan nan nan nan nan nan nan nan nan nan nan nan nan nan nan nan nan nan nan nan nan nan nan nan nan nan nan nan nan nan nan nan nan nan nan nan nan nan nan nan nan nan nan nan nan nan nan nan nan nan nan nan nan nan nan nan nan nan nan nan nan nan nan nan nan nan nan nan nan nan nan nan nan nan nan nan nan nan
nan nan nan nan nan nan nan nan nan nan nan nan nan nan nan nan nan nan nan nan nan nan nan nan nan nan nan nan nan nan nan nan nan nan nan nan nan nan nan nan nan nan nan nan nan nan nan nan nan nan nan nan nan nan nan nan nan nan nan nan nan nan nan nan nan nan nan nan nan nan nan nan nan nan nan nan nan nan nan nan nan nan nan nan nan
nan nan nan nan nan nan nan nan nan nan nan nan nan nan nan nan nan nan nan nan nan nan nan nan nan nan nan nan nan nan nan nan nan nan nan nan nan nan nan nan nan nan nan nan nan nan nan nan nan nan nan nan nan nan nan nan nan nan nan nan nan nan nan nan nan nan nan nan nan nan nan nan nan nan nan nan nan nan nan nan nan nan nan nan nan
nan nan nan nan nan nan nan nan nan nan nan nan nan nan nan nan nan nan nan nan nan nan nan nan nan nan nan nan nan nan nan nan nan nan nan nan nan nan nan nan nan nan nan nan nan nan nan nan nan nan nan nan nan nan nan nan nan nan nan nan nan nan nan nan nan nan nan nan nan nan nan nan nan nan nan nan nan nan nan nan nan nan nan nan nan
nan nan nan nan nan nan nan nan nan nan nan nan nan nan nan nan nan nan nan nan nan nan nan nan nan nan nan nan nan nan nan nan nan nan nan nan nan nan nan nan nan nan nan nan nan nan nan nan nan nan nan nan nan nan nan nan nan nan nan nan nan nan nan nan nan nan nan nan nan nan nan nan nan nan nan nan nan nan nan nan nan nan nan nan nan
nan nan nan nan nan nan nan nan nan nan nan nan nan nan nan nan nan nan nan nan nan nan nan nan nan nan nan nan nan nan nan nan nan nan nan nan nan nan nan nan nan nan nan nan nan nan nan nan nan nan nan nan nan nan nan nan nan nan nan nan nan nan nan nan nan nan nan nan nan nan nan nan nan nan nan nan nan nan nan nan nan nan nan nan nan
nan nan nan nan nan nan nan nan nan nan nan nan nan nan nan nan nan nan nan nan nan nan nan nan nan nan nan nan nan nan nan nan nan nan nan nan nan nan nan nan nan nan nan nan nan nan nan nan nan nan nan nan nan nan nan nan nan nan nan nan nan nan nan nan nan nan nan nan nan nan nan nan nan nan nan nan nan nan nan nan nan nan nan nan nan
nan 278 276 nan nan nan nan nan nan nan nan nan nan nan nan nan nan nan nan nan nan nan nan nan nan nan nan nan nan nan nan nan nan nan nan nan nan nan nan nan nan nan nan nan nan nan nan nan nan nan nan nan nan nan nan nan nan nan nan nan nan nan nan nan nan nan nan nan nan nan nan nan nan nan nan nan nan nan nan nan nan nan nan nan nan
281 nan nan nan nan nan nan nan nan nan nan nan nan nan nan nan nan nan nan nan nan nan nan nan nan nan nan nan nan nan nan nan nan nan nan nan nan nan nan nan nan nan nan nan nan nan nan nan nan nan nan nan nan nan nan nan nan nan nan nan nan nan nan nan nan nan nan nan nan nan nan nan nan nan nan nan nan nan nan nan nan nan nan nan nan
nan nan nan nan nan nan nan nan nan nan nan nan nan nan nan nan nan nan nan nan nan nan nan nan nan nan nan nan nan nan nan nan nan nan nan nan nan nan nan nan nan nan nan nan nan nan nan nan nan nan nan nan nan nan nan nan nan nan nan nan nan nan nan nan nan nan nan nan nan nan nan nan nan nan nan nan nan nan nan nan nan nan nan nan nan
nan nan nan nan nan nan nan nan nan nan nan nan nan nan nan nan nan nan nan nan nan nan nan nan nan nan nan nan nan nan nan nan nan nan nan nan nan nan nan nan nan nan nan nan nan nan nan nan nan nan nan nan nan nan nan nan nan nan nan nan nan nan nan nan nan nan nan nan nan nan nan nan nan nan nan nan nan nan nan nan nan nan nan nan nan
nan 278 279 nan nan nan nan nan nan nan nan nan nan nan nan nan nan nan nan nan nan nan nan nan nan nan nan nan nan nan nan nan nan nan nan nan nan nan nan nan nan nan nan nan nan nan nan nan nan nan nan nan nan nan nan nan nan nan nan nan nan nan nan nan nan nan nan nan nan nan nan nan nan nan nan nan nan nan nan nan nan nan nan nan nan